| time (UTC) | temp F | wind direction | speed MPH | gust MPH | rain 1hr in | rain 24hr in | rain mn in | humidity % | barometer mb |
| 20260508061545 | 36 | 259 | 2.0 | 6.0 | 0.00 | 0.00 | 0.00 | 91 | 1007.2 |
| 20260508060044 | 36 | 266 | 3.0 | 4.0 | 0.00 | 0.00 | 0.00 | 90 | 1007.3 |
| 20260508054545 | 35 | 239 | 1.0 | 4.0 | 0.00 | 0.00 | 0.00 | 91 | 1007.4 |
| 20260508053100 | 35 | 0 | 0.0 | 2.0 | 0.00 | 0.00 | 0.00 | 90 | 1007.5 |
| 20260508051541 | 36 | 82 | 2.0 | 3.0 | 0.00 | 0.00 | 0.00 | 90 | 1007.5 |
| 20260508050043 | 36 | 0 | 0.0 | 0.0 | 0.00 | 0.00 | 0.00 | 90 | 1007.6 |
| 20260508044544 | 36 | 67 | 1.0 | 3.0 | 0.00 | 0.00 | 0.00 | 89 | 1007.5 |
| 20260508043044 | 36 | 67 | 1.0 | 2.0 | 0.00 | 0.00 | 0.00 | 86 | 1007.7 |
| 20260508041607 | 37 | 67 | 0.0 | 2.0 | 0.00 | 0.00 | 0.00 | 85 | 1007.7 |
| 20260508040105 | 38 | 67 | 0.0 | 0.0 | 0.00 | 0.00 | 0.00 | 85 | 1007.7 |
| 20260508034544 | 39 | 0 | 0.0 | 0.0 | 0.00 | 0.00 | 0.00 | 84 | 1007.8 |
| 20260508033044 | 39 | 0 | 0.0 | 2.0 | 0.00 | 0.00 | 0.00 | 83 | 1007.8 |
| 20260508031543 | 39 | 0 | 0.0 | 2.0 | 0.00 | 0.00 | 0.00 | 83 | 1007.8 |
| 20260508030041 | 40 | 0 | 0.0 | 0.0 | 0.00 | 0.00 | 0.00 | 83 | 1007.7 |
| 20260508024541 | 40 | 0 | 0.0 | 3.0 | 0.00 | 0.00 | 0.00 | 83 | 1007.7 |
| 20260508023045 | 40 | 0 | 0.0 | 4.0 | 0.00 | 0.00 | 0.00 | 82 | 1007.7 |
| 20260508021544 | 41 | 117 | 3.0 | 8.0 | 0.00 | 0.00 | 0.00 | 79 | 1007.7 |
| 20260508020050 | 41 | 103 | 5.0 | 9.0 | 0.00 | 0.00 | 0.00 | 76 | 1007.6 |
| 20260508014546 | 42 | 115 | 7.0 | 9.0 | 0.00 | 0.00 | 0.00 | 76 | 1007.3 |
| 20260508013041 | 42 | 90 | 7.0 | 10.0 | 0.00 | 0.00 | 0.00 | 76 | 1007.2 |
| 20260508011549 | 43 | 124 | 4.0 | 11.0 | 0.00 | 0.00 | 0.00 | 75 | 1007.2 |
| 20260508010046 | 44 | 125 | 7.0 | 11.0 | 0.00 | 0.00 | 0.00 | 69 | 1007.2 |
| 20260508004544 | 46 | 170 | 8.0 | 11.0 | 0.00 | 0.00 | 0.00 | 63 | 1007.1 |
| 20260508003044 | 47 | 248 | 6.0 | 10.0 | 0.00 | 0.00 | 0.00 | 58 | 1007.1 |
| 20260508001546 | 47 | 281 | 4.0 | 6.0 | 0.00 | 0.00 | 0.00 | 57 | 1007.1 |
| 20260508000043 | 47 | 298 | 3.0 | 6.0 | 0.00 | 0.00 | 0.00 | 59 | 1007.1 |
| 20260507234548 | 47 | 325 | 5.0 | 11.0 | 0.00 | 0.00 | 0.00 | 60 | 1007.1 |
| 20260507233057 | 47 | 334 | 1.0 | 13.0 | 0.00 | 0.00 | 0.00 | 60 | 1007.1 |
| 20260507231544 | 47 | 326 | 9.0 | 19.0 | 0.00 | 0.00 | 0.00 | 60 | 1007.4 |
| 20260507230046 | 47 | 337 | 10.0 | 15.0 | 0.00 | 0.00 | 0.00 | 62 | 1007.4 |
| 20260507224553 | 46 | 347 | 5.0 | 9.0 | 0.00 | 0.00 | 0.00 | 61 | 1007.3 |
| 20260507223040 | 47 | 333 | 10.0 | 15.0 | 0.00 | 0.00 | 0.00 | 59 | 1007.4 |
| 20260507221538 | 47 | 324 | 17.0 | 21.0 | 0.00 | 0.00 | 0.00 | 58 | 1007.2 |
| 20260507220044 | 47 | 308 | 16.0 | 20.0 | 0.00 | 0.00 | 0.00 | 57 | 1007.2 |
| 20260507214542 | 46 | 291 | 12.0 | 25.0 | 0.00 | 0.00 | 0.00 | 59 | 1007.3 |
| 20260507213051 | 46 | 311 | 14.0 | 23.0 | 0.00 | 0.00 | 0.00 | 59 | 1007.3 |
| 20260507211547 | 46 | 304 | 16.0 | 21.0 | 0.00 | 0.00 | 0.00 | 60 | 1007.1 |
| 20260507210047 | 46 | 320 | 22.0 | 30.0 | 0.00 | 0.00 | 0.00 | 57 | 1007.2 |
| 20260507204538 | 48 | 304 | 20.0 | 26.0 | 0.00 | 0.00 | 0.00 | 51 | 1006.9 |
| 20260507203045 | 48 | 317 | 16.0 | 28.0 | 0.00 | 0.00 | 0.00 | 49 | 1007.0 |
| 20260507201545 | 49 | 304 | 16.0 | 23.0 | 0.00 | 0.00 | 0.00 | 48 | 1006.9 |
| 20260507200048 | 48 | 312 | 17.0 | 30.0 | 0.00 | 0.00 | 0.00 | 50 | 1007.0 |
| 20260507194611 | 48 | 298 | 13.0 | 25.0 | 0.00 | 0.00 | 0.00 | 48 | 1007.1 |
| 20260507193043 | 48 | 306 | 14.0 | 22.0 | 0.00 | 0.00 | 0.00 | 46 | 1007.3 |
| 20260507191537 | 47 | 297 | 14.0 | 20.0 | 0.00 | 0.00 | 0.00 | 45 | 1007.4 |
| 20260507190051 | 47 | 305 | 14.0 | 19.0 | 0.00 | 0.00 | 0.00 | 48 | 1007.6 |
| 20260507184543 | 47 | 292 | 13.0 | 22.0 | 0.00 | 0.00 | 0.00 | 52 | 1007.7 |
| 20260507183045 | 47 | 290 | 16.0 | 24.0 | 0.00 | 0.00 | 0.00 | 49 | 1007.7 |
| 20260507181547 | 46 | 300 | 14.0 | 18.0 | 0.00 | 0.00 | 0.00 | 52 | 1007.7 |
| 20260507180040 | 46 | 291 | 10.0 | 16.0 | 0.00 | 0.00 | 0.00 | 55 | 1008.0 |
| 20260507174555 | 45 | 279 | 14.0 | 22.0 | 0.00 | 0.00 | 0.00 | 57 | 1008.2 |
| 20260507173113 | 45 | 311 | 21.0 | 25.0 | 0.00 | 0.00 | 0.00 | 55 | 1008.3 |
| 20260507171548 | 46 | 298 | 18.0 | 24.0 | 0.00 | 0.00 | 0.00 | 54 | 1008.2 |
| 20260507170043 | 46 | 313 | 22.0 | 27.0 | 0.00 | 0.00 | 0.00 | 52 | 1008.3 |
| 20260507164553 | 45 | 311 | 17.0 | 22.0 | 0.00 | 0.00 | 0.00 | 53 | 1008.4 |
| 20260507163039 | 45 | 296 | 16.0 | 25.0 | 0.00 | 0.00 | 0.00 | 49 | 1008.6 |
| 20260507161600 | 45 | 315 | 18.0 | 26.0 | 0.00 | 0.00 | 0.00 | 50 | 1008.8 |
| 20260507160044 | 45 | 300 | 16.0 | 24.0 | 0.00 | 0.00 | 0.00 | 55 | 1008.9 |
| 20260507154545 | 45 | 325 | 17.0 | 26.0 | 0.00 | 0.00 | 0.00 | 51 | 1008.9 |
| 20260507153045 | 44 | 286 | 17.0 | 25.0 | 0.00 | 0.00 | 0.00 | 53 | 1009.0 |
| 20260507151539 | 43 | 260 | 14.0 | 22.0 | 0.00 | 0.00 | 0.00 | 58 | 1009.2 |
| 20260507150052 | 43 | 286 | 14.0 | 22.0 | 0.00 | 0.00 | 0.00 | 54 | 1009.1 |
| 20260507144548 | 43 | 287 | 13.0 | 20.0 | 0.00 | 0.00 | 0.00 | 58 | 1009.2 |
| 20260507143046 | 42 | 282 | 12.0 | 18.0 | 0.00 | 0.00 | 0.00 | 63 | 1009.3 |
| 20260507141557 | 42 | 271 | 11.0 | 21.0 | 0.00 | 0.00 | 0.00 | 62 | 1009.3 |
| 20260507140042 | 42 | 283 | 14.0 | 17.0 | 0.00 | 0.00 | 0.00 | 60 | 1009.4 |
| 20260507134541 | 41 | 314 | 10.0 | 19.0 | 0.00 | 0.00 | 0.00 | 65 | 1009.5 |
| 20260507133040 | 40 | 257 | 6.0 | 9.0 | 0.00 | 0.00 | 0.00 | 72 | 1009.7 |
| 20260507131545 | 40 | 254 | 5.0 | 10.0 | 0.00 | 0.00 | 0.00 | 73 | 1009.9 |
| 20260507130047 | 39 | 240 | 1.0 | 4.0 | 0.00 | 0.00 | 0.00 | 74 | 1010.0 |
| 20260507124547 | 39 | 201 | 3.0 | 6.0 | 0.00 | 0.00 | 0.00 | 75 | 1010.1 |
| 20260507123044 | 39 | 281 | 6.0 | 9.0 | 0.00 | 0.00 | 0.00 | 76 | 1010.1 |
| 20260507121544 | 38 | 277 | 6.0 | 9.0 | 0.00 | 0.00 | 0.00 | 78 | 1010.1 |
| 20260507120043 | 37 | 253 | 2.0 | 4.0 | 0.00 | 0.00 | 0.00 | 77 | 1010.1 |
| 20260507114542 | 37 | 253 | 3.0 | 5.0 | 0.00 | 0.00 | 0.00 | 77 | 1010.0 |
| 20260507113049 | 38 | 258 | 7.0 | 8.0 | 0.00 | 0.00 | 0.00 | 76 | 1009.9 |
| 20260507111546 | 38 | 279 | 6.0 | 8.0 | 0.00 | 0.00 | 0.00 | 75 | 1009.9 |
| 20260507110044 | 38 | 281 | 3.0 | 4.0 | 0.00 | 0.00 | 0.00 | 76 | 1009.9 |
| 20260507104540 | 38 | 281 | 2.0 | 4.0 | 0.00 | 0.00 | 0.00 | 75 | 1009.7 |
| 20260507103040 | 38 | 271 | 2.0 | 5.0 | 0.00 | 0.00 | 0.00 | 77 | 1009.7 |
| 20260507101548 | 38 | 248 | 6.0 | 7.0 | 0.00 | 0.00 | 0.00 | 78 | 1009.6 |
| 20260507100047 | 38 | 236 | 3.0 | 5.0 | 0.00 | 0.00 | 0.00 | 77 | 1009.6 |
| 20260507094550 | 38 | 243 | 3.0 | 7.0 | 0.00 | 0.00 | 0.00 | 80 | 1009.7 |
| 20260507093042 | 38 | 241 | 3.0 | 5.0 | 0.00 | 0.00 | 0.00 | 78 | 1009.7 |
| 20260507091539 | 38 | 241 | 3.0 | 5.0 | 0.00 | 0.00 | 0.00 | 79 | 1009.7 |
| 20260507090043 | 38 | 241 | 3.0 | 7.0 | 0.00 | 0.00 | 0.00 | 78 | 1009.8 |
| 20260507084537 | 39 | 253 | 3.0 | 4.0 | 0.00 | 0.00 | 0.00 | 79 | 1009.8 |
| 20260507083045 | 39 | 252 | 4.0 | 7.0 | 0.00 | 0.00 | 0.00 | 79 | 1009.9 |
| 20260507081547 | 39 | 242 | 5.0 | 7.0 | 0.00 | 0.00 | 0.00 | 79 | 1010.0 |
| 20260507080041 | 39 | 244 | 4.0 | 8.0 | 0.00 | 0.00 | 0.00 | 79 | 1010.0 |
| 20260507074540 | 39 | 239 | 4.0 | 5.0 | 0.00 | 0.00 | 0.00 | 79 | 1010.0 |
| 20260507073052 | 39 | 245 | 3.0 | 5.0 | 0.00 | 0.00 | 0.00 | 80 | 1010.2 |
| 20260507071540 | 39 | 245 | 3.0 | 5.0 | 0.00 | 0.00 | 0.00 | 78 | 1010.2 |
| 20260507070048 | 39 | 245 | 3.0 | 5.0 | 0.00 | 0.00 | 0.00 | 77 | 1010.4 |
| 20260507064604 | 39 | 245 | 4.0 | 5.0 | 0.00 | 0.00 | 0.00 | 78 | 1010.6 |
| 20260507063052 | 39 | 269 | 1.0 | 3.0 | 0.00 | 0.00 | 0.00 | 80 | 1010.6 |